STARLINK-34704, 65746

Orbit data source: Space-Track

STARLINK-34704, 65746 is a payload satellite owned by SpaceX/Seattle (US) in LEO that was launched on Thu, 25 Sep 2025 UTC via an FALCON 9 launch vehicle from the Air Force Eastern Test Range (AFETR). Payload-class satellites include a variety of spacecraft equipped with specific instruments for various scientific and technological missions. These include communications satellites like Starlink; space stations such as the ISS; scientific satellites like the Hubble; Earth observation satellites from companies like Planet Labs, Umbra, and HawkEye 360; GPS; miniature CubeSats for education and research; and military/defense satellites.

Loading next visibility...
Identifier
65746, 2025-216N
Orbit
LEO
Country
Flag of USUS
Related business
Manufacturer
SpaceX/Seattle
Mission
Operational Commercial Communications
Bus & Motor
STARLINK V2MO, Unknown motor
Mass
575 kg wet, ~530 kg dry
Launch date (UTC)
2025-09-25 (9 months ago)
Launch vehicle
FALCON 9
Launch site
Air Force Eastern Test Range (AFETR)
Object type
Payload
Rocket body
Debris
Shape & HBR
Box + 2 Pan, 17.7 m
Radar Cross Section
36.964 m², Large (>1 m²)

Expand to show TLE details & history
Last TLE update: 10 hours ago

TLE from 10 hours ago
0 STARLINK-34704
1 65746U 25216N   26171.44429316  .00010381  00000-0  36201-3 0  9992
2 65746  53.1588 215.7559 0001267  76.8230 283.2912 15.30210032 42264
Epoch: 2026-06-20T10:39Z
TLE epoch observation values (Epoch: 2026-06-20T10:39:46.929Z)
Latitude
-0°
Longitude
147.15153°
Altitude
475.885 km
Speed
7.629 km/s
True Right ascension
14h 23m 01s
True Declination
0° 00' 00"
Sunlit
Object was in full shadow at epoch
Visualization orbit readout
Latitude
Unknown
Longitude
Unknown
Altitude
Unknown
Speed
Unknown
Apparent Right ascension
Unknown
Apparent Declination
Unknown
Sunlit
N/A
Visualization observer readout
Local Sidereal Time
07:12:22
Azimuth
Unknown
Elevation
Unknown
Doppler factor
Unknown
Orbital elements
Apogee altitude
476.31 km
Perigee altitude
474.573 km
Semi-major axis
6,853.579 km
Eccentricity
0.00013
Inclination
53.1588°
RAAN
215.7559°
Arg. of periapsis
76.823°
True anomaly
283.27707°
Mean anomaly
283.2912°
Eccentric anomaly
283.28413°
Mean motion
3.82531 °/min
Orbital period
94.11 mins
BSTAR
0.00036201
Loading maneuver chart data...
Computing Atmospheric mass density...
Loading historical data...
Loading historical data...
Loading historical data...
Loading historical data...
Loading historical data...
Loading historical data...
Loading historical data...

Documentation

Showing up to 5 results
|